Location: Fort Wayne
(41.1310°N, 85.1290°W)
Time: 05:26:54
(UTC-04:00)

Cosmos 1980 - Visible Passes

Search period start: 23 August 2014 00:00
Search period end: 02 September 2014 00:00
Orbit: 841 x 846 km, 71.0° (Epoch: 21 August)

Date Brightness Start Highest point End Pass type
(mag) Time Alt. Az. Time Alt. Az. Time Alt. Az.
29 Aug 6.3 06:27:47 10° SE 06:31:48 20° E 06:35:50 10° NE visible
30 Aug 6.3 06:13:29 10° SE 06:17:24 20° E 06:21:18 10° NE visible
31 Aug 6.3 05:59:12 10° SE 06:02:59 19° E 06:06:46 10° ENE visible
01 Sep 6.3 05:44:56 10° SE 05:48:35 18° E 05:52:14 10° ENE visible
